• In Österreich
  • Länderverzeichnis
  • Für 7 Tage
  • Wassertemperatur
  • Satellitenkarten
  • Wetterkarte
  • News
  • Widgets
  • user-avatar
    Anmelden

    Stündliche Wetter Lubumbaschi

    Heute, 25 Juni, Montag

    Zeit Temperatur Niederschläge Wind Luftdruck Luftfeuchtigkeit
    00:00 +35°C° 0 mm 4 m/S 719 mmHg 42%
    01:00 +34°C° 0 mm 4 m/S 719 mmHg 42%
    02:00 +34°C° 0 mm 3 m/S 719 mmHg 43%
    03:00 +33°C° 0 mm 3 m/S 719 mmHg 43%
    04:00 +33°C° 0 mm 3 m/S 719 mmHg 44%
    05:00 +33°C° 0 mm 4 m/S 719 mmHg 45%
    06:00 +33°C° 0 mm 4 m/S 719 mmHg 43%
    07:00 +34°C° 0 mm 5 m/S 719 mmHg 42%
    08:00 +34°C° 0 mm 5 m/S 719 mmHg 41%
    09:00 +35°C° 0 mm 5 m/S 719 mmHg 38%
    10:00 +37°C° 0 mm 5 m/S 719 mmHg 35%
    11:00 +38°C° 0 mm 4 m/S 719 mmHg 32%
    12:00 +39°C° 0 mm 3 m/S 719 mmHg 30%
    13:00 +39°C° 0 mm 2 m/S 718 mmHg 28%
    14:00 +40°C° 0 mm 1 m/S 718 mmHg 26%
    15:00 +40°C° 0 mm 1 m/S 717 mmHg 25%
    16:00 +40°C° 0 mm 1 m/S 717 mmHg 25%
    17:00 +40°C° 0 mm 1 m/S 717 mmHg 25%
    18:00 +40°C° 0 mm 1 m/S 717 mmHg 25%
    19:00 +40°C° 0 mm 1 m/S 717 mmHg 25%
    20:00 +40°C° 0 mm 1 m/S 717 mmHg 25%
    21:00 +39°C° 0,1 mm 2 m/S 717 mmHg 27%
    22:00 +38°C° 0,1 mm 3 m/S 718 mmHg 28%
    23:00 +38°C° 0,1 mm 4 m/S 718 mmHg 30%

    Morgen, 26 Juni, Dienstag

    Zeit Temperatur Niederschläge Wind Luftdruck Luftfeuchtigkeit
    00:00 +37°C° 0,2 mm 5 m/S 718 mmHg 33%
    01:00 +36°C° 0,2 mm 6 m/S 718 mmHg 36%
    02:00 +35°C° 0,2 mm 7 m/S 718 mmHg 40%
    03:00 +34°C° 0 mm 7 m/S 718 mmHg 41%
    04:00 +34°C° 0 mm 7 m/S 718 mmHg 43%
    05:00 +33°C° 0 mm 6 m/S 718 mmHg 45%
    06:00 +33°C° 0 mm 6 m/S 718 mmHg 45%
    07:00 +34°C° 0 mm 6 m/S 719 mmHg 45%
    08:00 +34°C° 0 mm 6 m/S 719 mmHg 45%
    09:00 +35°C° 0 mm 6 m/S 719 mmHg 42%
    10:00 +36°C° 0 mm 5 m/S 719 mmHg 39%
    11:00 +37°C° 0 mm 5 m/S 720 mmHg 35%
    12:00 +38°C° 0 mm 4 m/S 719 mmHg 33%
    13:00 +39°C° 0 mm 3 m/S 719 mmHg 31%
    14:00 +40°C° 0 mm 3 m/S 718 mmHg 28%
    15:00 +39°C° 0 mm 2 m/S 718 mmHg 29%
    16:00 +39°C° 0 mm 2 m/S 717 mmHg 29%
    17:00 +39°C° 0 mm 2 m/S 717 mmHg 29%
    18:00 +39°C° 0,1 mm 3 m/S 717 mmHg 30%
    19:00 +38°C° 0,1 mm 4 m/S 717 mmHg 32%
    20:00 +38°C° 0,1 mm 4 m/S 717 mmHg 33%
    21:00 +37°C° 0 mm 4 m/S 717 mmHg 35%
    22:00 +36°C° 0 mm 4 m/S 718 mmHg 37%
    23:00 +36°C° 0 mm 4 m/S 718 mmHg 39%

    übermorgen, 27 Juni, Mittwoch

    Zeit Temperatur Niederschläge Wind Luftdruck Luftfeuchtigkeit
    00:00 +35°C° 0,1 mm 5 m/S 718 mmHg 42%
    01:00 +34°C° 0,1 mm 6 m/S 718 mmHg 45%
    02:00 +33°C° 0,1 mm 7 m/S 718 mmHg 49%
    03:00 +33°C° 0 mm 7 m/S 718 mmHg 52%
    04:00 +32°C° 0 mm 7 m/S 718 mmHg 56%
    05:00 +30°C° 0 mm 7 m/S 718 mmHg 60%
    06:00 +30°C° 0 mm 7 m/S 719 mmHg 58%
    07:00 +30°C° 0 mm 7 m/S 719 mmHg 57%
    08:00 +32°C° 0 mm 7 m/S 720 mmHg 55%
    09:00 +33°C° 0,2 mm 6 m/S 720 mmHg 49%
    10:00 +35°C° 0,2 mm 5 m/S 720 mmHg 44%
    11:00 +36°C° 0,2 mm 5 m/S 721 mmHg 38%
    12:00 +37°C° 0 mm 4 m/S 720 mmHg 36%
    13:00 +38°C° 0 mm 4 m/S 719 mmHg 33%
    14:00 +39°C° 0 mm 3 m/S 719 mmHg 30%
    15:00 +39°C° 0 mm 3 m/S 718 mmHg 30%
    16:00 +39°C° 0 mm 3 m/S 718 mmHg 29%
    17:00 +39°C° 0 mm 3 m/S 717 mmHg 28%
    18:00 +38°C° 0,1 mm 3 m/S 718 mmHg 30%
    19:00 +38°C° 0,1 mm 3 m/S 718 mmHg 31%
    20:00 +37°C° 0,1 mm 3 m/S 718 mmHg 32%
    21:00 +37°C° 0,3 mm 3 m/S 718 mmHg 33%
    22:00 +36°C° 0,3 mm 3 m/S 719 mmHg 35%
    23:00 +36°C° 0,3 mm 3 m/S 719 mmHg 37%

    28 Juni, Donnerstag

    Zeit Temperatur Niederschläge Wind Luftdruck Luftfeuchtigkeit
    00:00 +35°C° 0,4 mm 4 m/S 719 mmHg 41%
    01:00 +34°C° 0,4 mm 5 m/S 719 mmHg 46%
    02:00 +33°C° 0,4 mm 6 m/S 718 mmHg 50%
    03:00 +32°C° 0 mm 6 m/S 719 mmHg 53%
    04:00 +30°C° 0 mm 6 m/S 719 mmHg 56%
    05:00 +29°C° 0 mm 7 m/S 719 mmHg 59%
    06:00 +30°C° 0 mm 6 m/S 719 mmHg 59%
    07:00 +30°C° 0 mm 6 m/S 720 mmHg 59%
    08:00 +30°C° 0 mm 6 m/S 720 mmHg 58%
    09:00 +32°C° 0 mm 6 m/S 721 mmHg 53%
    10:00 +34°C° 0 mm 6 m/S 721 mmHg 48%
    11:00 +35°C° 0 mm 6 m/S 721 mmHg 43%
    12:00 +35°C° 0 mm 6 m/S 720 mmHg 42%
    13:00 +36°C° 0 mm 5 m/S 720 mmHg 41%
    14:00 +36°C° 0 mm 4 m/S 719 mmHg 39%
    15:00 +36°C° 0 mm 4 m/S 719 mmHg 39%
    16:00 +35°C° 0 mm 5 m/S 719 mmHg 40%
    17:00 +35°C° 0 mm 5 m/S 718 mmHg 40%
    18:00 +34°C° 0,2 mm 5 m/S 718 mmHg 42%
    19:00 +34°C° 0,2 mm 5 m/S 718 mmHg 45%
    20:00 +33°C° 0,2 mm 5 m/S 718 mmHg 47%
    21:00 +32°C° 0,1 mm 4 m/S 719 mmHg 50%
    22:00 +32°C° 0,1 mm 4 m/S 719 mmHg 52%
    23:00 +30°C° 0,1 mm 3 m/S 719 mmHg 54%

    29 Juni, Freitag

    Zeit Temperatur Niederschläge Wind Luftdruck Luftfeuchtigkeit
    00:00 +30°C° 0 mm 3 m/S 719 mmHg 55%
    01:00 +30°C° 0 mm 3 m/S 719 mmHg 56%
    02:00 +30°C° 0 mm 4 m/S 719 mmHg 57%
    03:00 +29°C° 0,2 mm 3 m/S 719 mmHg 58%
    04:00 +29°C° 0,2 mm 3 m/S 719 mmHg 59%
    05:00 +29°C° 0,2 mm 3 m/S 719 mmHg 60%
    06:00 +29°C° 0 mm 3 m/S 719 mmHg 59%
    07:00 +29°C° 0 mm 3 m/S 719 mmHg 59%
    08:00 +29°C° 0 mm 4 m/S 720 mmHg 58%
    09:00 +32°C° 0 mm 5 m/S 720 mmHg 54%
    10:00 +33°C° 0 mm 5 m/S 720 mmHg 50%
    11:00 +34°C° 0 mm 6 m/S 720 mmHg 46%
    12:00 +35°C° 0 mm 6 m/S 719 mmHg 42%
    13:00 +37°C° 0 mm 5 m/S 718 mmHg 38%
    14:00 +39°C° 0 mm 5 m/S 717 mmHg 34%
    15:00 +38°C° 0 mm 4 m/S 717 mmHg 32%
    16:00 +38°C° 0 mm 4 m/S 717 mmHg 31%
    17:00 +38°C° 0 mm 3 m/S 717 mmHg 30%
    18:00 +38°C° 0,2 mm 3 m/S 717 mmHg 31%
    19:00 +37°C° 0,2 mm 3 m/S 718 mmHg 33%
    20:00 +37°C° 0,2 mm 3 m/S 718 mmHg 34%
    21:00 +36°C° 0,1 mm 3 m/S 719 mmHg 36%
    22:00 +36°C° 0,1 mm 4 m/S 719 mmHg 38%
    23:00 +35°C° 0,1 mm 4 m/S 719 mmHg 40%

    30 Juni, Samstag

    Zeit Temperatur Niederschläge Wind Luftdruck Luftfeuchtigkeit
    00:00 +34°C° 0 mm 4 m/S 718 mmHg 43%
    01:00 +34°C° 0 mm 5 m/S 718 mmHg 47%
    02:00 +33°C° 0 mm 5 m/S 717 mmHg 50%
    03:00 +32°C° 0 mm 5 m/S 717 mmHg 52%
    04:00 +32°C° 0 mm 5 m/S 717 mmHg 53%
    05:00 +32°C° 0 mm 4 m/S 718 mmHg 55%
    06:00 +32°C° 0 mm 5 m/S 718 mmHg 55%
    07:00 +32°C° 0 mm 5 m/S 719 mmHg 54%
    08:00 +32°C° 0 mm 5 m/S 719 mmHg 54%
    09:00 +33°C° 0 mm 5 m/S 719 mmHg 51%
    10:00 +34°C° 0 mm 4 m/S 719 mmHg 47%
    11:00 +35°C° 0 mm 4 m/S 720 mmHg 44%
    12:00 +36°C° 0 mm 4 m/S 719 mmHg 41%
    13:00 +36°C° 0 mm 4 m/S 718 mmHg 38%
    14:00 +37°C° 0 mm 4 m/S 718 mmHg 35%
    15:00 +38°C° 0 mm 3 m/S 717 mmHg 33%
    16:00 +38°C° 0 mm 3 m/S 717 mmHg 32%
    17:00 +38°C° 0 mm 2 m/S 717 mmHg 30%
    18:00 +38°C° 0 mm 3 m/S 717 mmHg 31%
    19:00 +37°C° 0 mm 3 m/S 717 mmHg 31%
    20:00 +37°C° 0 mm 3 m/S 717 mmHg 31%
    21:00 +36°C° 0 mm 3 m/S 718 mmHg 33%
    22:00 +36°C° 0 mm 3 m/S 718 mmHg 35%
    23:00 +35°C° 0 mm 4 m/S 718 mmHg 36%
    Mehr zeigen